Weather in Novofedorovka

Russia / Republic of Crimea     45˚05′29″N   33˚34′26″E
temp.,
°C
wind,
m/s
gust,
m/s
humid.,
%
clouds,
%
prec.,
mm/h
press.,
hPa
HPBL,
m
17 january, sun
sun1700:00+1˚ene101284100 0.0 1011460
03:00ne131689100 0.1 1009738
06:00nne121593100 0.7 1007851
09:00−2˚nne131595100 1.3 1008654
12:00−2˚nne111391100 0.4 1009686
15:00−2˚nne91091100 0.8 1009657
18:00−3˚nne91090100 0.4 1011610
21:00−4˚nne6789100 0.5 1013554
18 january, mon
mon1800:00−4˚nne6585100 0.1 1015611
03:00−5˚n5483100 0.2 1015560
06:00−5˚n5578100 0.1 1016707
09:00−5˚nne4477100 0.1 1017579
12:00−5˚ese337282 0.0 1018384
15:00−2˚se445965 0.0 1017602
18:00w7972100 0.8 10181202
21:00−4˚n6687100 0.9 1019644
19 january, tue
tue1900:00−5˚e548999 0.1 1020361
03:00−5˚ene559099 0.7 1020381
06:00−6˚ne448662 0.1 1020380
09:00−6˚ne448781 0.1 1021319
12:00−5˚ne438297 0.1 1021421
15:00−4˚n237792 0.1 1021568
18:00−3˚nnw3470100 0.0 1022865
21:00−4˚ne2284100 0.1 1023311
20 january, wed
wed2000:00−4˚e3289100 0.5 1023293
03:00−3˚ese327994 0.6 1023387
06:00−2˚se337744 0.0 1023410
09:00−1˚se447455 0.0 1024432
12:00+1˚sse5579100 0.0 1024533
15:00+4˚s6783100 0.2 1023709
18:00+3˚s5596100 0.6 1024355
21:00+4˚s6785100 1.1 1025569
21 january, thu
thu2100:00+4˚s567997 0.3 1024472
03:00+5˚sse678099 0.3 1024513
06:00+5˚sse788399 0.2 1023522
09:00+6˚s798196 0.3 1024571
12:00+8˚ssw787729 0.1 1024883
15:00+9˚sw897815 0.1 1024872
18:00+8˚ssw9108048 0.1 1024914
21:00+9˚ssw10117974 0.1 1025953